Regional Weather Roundup
Issued by NWS

Home | Current Version | Previous Version | Text Only | Print | Product List | Glossary On
Versions: 1 2 3 4 5 6 7 8 9 10 11 12 13 14 15 16 17 18 19 20 21 22 23 24 25 26 27 28 29 30 31 32 33 34 35 36 37 38 39 40 41 42 43 44 45 46 47 48 49 50
000
ASUS46 KSEW 302310
RWRWA

WASHINGTON REGIONAL WEATHER ROUNDUP
NATIONAL WEATHER SERVICE SEATTLE WA
400 PM PDT SUN AUG 30 2015

NOTE:"FAIR" INDICATES FEW OR NO CLOUDS BELOW 12,000 FEET WITH NO
SIGNIFICANT WEATHER AND/OR OBSTRUCTIONS TO VISIBILITY.

WAZ505-507>509-310000-
SEATTLE, TACOMA, EVERETT, AND VICINITY

CITY           SKY/WX    TMP DP  RH WIND       PRES   REMARKS
EVERETT        PTSUNNY   67  49  52 S17       29.94S
BOEING FIELD   PTSUNNY   71  52  50 S9        29.95S
RENTON         MOSUNNY   68  52  56 S17G23    29.95S
SEATAC AIRPORT PTSUNNY   67  52  58 SW15      29.97S
JBLM-MCCHORD   PTSUNNY   64  60  85 SW7       29.97S
PUYALLUP       PTSUNNY   66  57  72 W5        29.98R
BREMERTON      MOSUNNY   64  57  77 S12       29.98R
JBLM-FT LEWIS  MOSUNNY   66  58  77 SW10      29.96S
TACOMA NARROWS PTSUNNY   66  52  60 S10       29.97S
$$

WAZ001-503-506-510-514-515-310000-
NORTH INTERIOR

CITY           SKY/WX    TMP DP  RH WIND       PRES   REMARKS
BELLINGHAM     MOSUNNY   69  54  58 S14G20      N/A
FRIDAY HARBOR  PTSUNNY   69  53  56 SE6       29.92S
EASTSOUND      MOSUNNY   68  50  52 S7        29.88S
PORT ANGELES   PTSUNNY   65  51  60 N5        29.92S
PORT TOWNSEND  PTSUNNY   68  52  56 VRB7G15   29.90S
NAS WHIDBEY    PTSUNNY   68  54  60 SE14G22   29.95S
ARLINGTON      PTSUNNY   66  50  55 S20       29.92S
BURLINGTON     CLOUDY    70  54  56 S10G21    29.92R
$$

WAZ020-022-039-040-504-511-512-310000-
SOUTHWEST INTERIOR

CITY           SKY/WX    TMP DP  RH WIND       PRES   REMARKS
SHELTON        PTSUNNY   65  54  67 SW16      29.94R
OLYMPIA        CLOUDY    66  54  65 SW12G18   29.98R
CHEHALIS       MOSUNNY   72  50  46 W10G20    29.98S
KELSO          NOT AVBL
VANCOUVER      PTSUNNY   73  47  39 W13G20    30.01R
SCAPPOOSE, OR  SUNNY     73  48  41 SW13G23   30.00R
PORTLAND, OR   PTSUNNY   73  50  44 W13G20    30.01S
$$

WAZ021-516-517-310000-
WASHINGTON COAST

CITY           SKY/WX    TMP DP  RH WIND       PRES   REMARKS
FORKS          MOSUNNY   66  57  72 SW13      29.93S
HOQUIAM        SUNNY     67  56  67 SW14      29.99R
ASTORIA, OR    SUNNY     68  55  63 SW16G25   30.01R
$$

WAZ019-023-024-040-518-519-310000-
CASCADE MOUNTAINS AND COLUMBIA GORGE

CITY           SKY/WX    TMP DP  RH WIND       PRES   REMARKS
TROUTDALE, OR  CLOUDY    67  59  75 VRB5      30.02S HAZE
THE DALLES, OR MOSUNNY   74  46  36 W20G28    29.97S
$$

WAZ026-027-041>044-520-521-310000-
EAST SLOPES

CITY           SKY/WX    TMP DP  RH WIND       PRES   REMARKS
OMAK           PTSUNNY   75  37  25 S21G26    29.80S
WENATCHEE      MOSUNNY   71  39  31 N6        29.89R
ELLENSBURG     SUNNY     72  42  34 NW16      29.92S
YAKIMA         MOSUNNY   75  38  26 NW10G20   29.92S
$$

WAZ028-034-035-310000-
COLUMBIA BASIN

CITY           SKY/WX    TMP DP  RH WIND       PRES   REMARKS
EPHRATA        SUNNY     74  39  28 SW20G28   29.88S
MOSES LAKE     SUNNY     75  42  30 SW18G25   29.90S
PASCO          SUNNY     77  43  29 SW22G33   29.93R
HERMISTON, OR  SUNNY     76  46  34 W13G21    29.96S
$$

WAZ036>038-310000-
NORTHEAST WASHINGTON

CITY           SKY/WX    TMP DP  RH WIND       PRES   REMARKS
SPOKANE GEIGER PTSUNNY   63  50  62 S18       29.91S
SPOKANE FELTS  MOSUNNY   65  49  56 SW23G30   29.91F
FAIRCHILD AFB  LGT RAIN  64  45  48 SW24      29.91S
COEURDALENE,ID CLOUDY    61  55  82 S13G20    29.92F
DEER PARK      PTSUNNY   66  47  50 SW22      29.90S
$$

WAZ029>033-310000-
SOUTHEAST WASHINGTON

CITY           SKY/WX    TMP DP  RH WIND       PRES   REMARKS
PULLMAN        PTSUNNY   63  47  55 SW18      30.00S
LEWISTON, ID   LGT RAIN  65  53  65 SE7       29.96S
WALLA WALLA    MOSUNNY   70  50  49 S17       29.97F
PENDLETON, OR  PTSUNNY   71  44  37 W13G20    29.98F
$$



USA.gov is the U.S. government's official web portal to all federal, state and local government web resources and services.